This demonstration page uses our WeatherBlox Daily Observations layout. Learn more.

41.55636, -103.73856

Hourly Observations for April 21, 2019

Temp ( °F °C ) Dew Point ( °F °C ) Humidity (%) Winds ( mph kmh ) Pressure ( in mb ) Visibility ( mi km ) Precip ( " mm )
12:53 am 00:53 Clear 61 16.1 42 5.6 50 50 NNE 13 20 29.56 1001 10 16.09344 0 0
1:53 am 01:53 Clear 57 13.9 46 7.8 67 67 NNE 15 24 29.56 1001 10 16.09344 0 0
2:53 am 02:53 Clear 55 12.8 46 7.8 72 72 VRB 5 7 29.59 1002 10 16.09344 0 0
3:53 am 03:53 Partly Cloudy 53 11.7 46 7.8 77 77 NNW 12 19 29.56 1001 10 16.09344 0 0
4:53 am 04:53 Mostly Clear 52 11.1 45 7.2 77 77 E 3 6 29.59 1002 10 16.09344 0 0
5:53 am 05:53 Clear 50 10 44 6.7 80 80 VRB 5 7 29.62 1003 10 16.09344 0 0
6:53 am 06:53 Mostly Sunny 52 11.1 45 7.2 77 77 N 5 7 29.65 1004 10 16.09344 0 0
7:53 am 07:53 Cloudy 52 11.1 46 7.8 80 80 WNW 8 13 29.71 1006 10 16.09344 0 0
8:53 am 08:53 Cloudy 53 11.7 46 7.8 77 77 NNW 10 17 29.71 1006 10 16.09344 0 0
9:53 am 09:53 Cloudy with Light Rain 53 11.7 46 7.8 77 77 N 16 26 29.74 1007 10 16.09344 0.001 0.001
10:53 am 10:53 Cloudy with Light Rain 52 11.1 47 8.3 83 83 NNW 12 19 29.77 1008 10 16.09344 0.001 0.001
11:53 am 11:53 Cloudy with Light Rain 52 11.1 47 8.3 83 83 N 8 13 29.8 1009 10 16.09344 0.001 0.001
12:48 pm 12:48 Cloudy with Light Rain 52 11 48 9 88 88 NNW 13 20 29.83 1010 6 9.656064 0 0
12:53 pm 12:53 Cloudy with Light Rain 52 11.1 49 9.4 89 89 NNW 13 20 29.8 1009 8 12.874752 0.02 0.508
1:53 pm 13:53 Cloudy with Rain 51 10.6 49 9.4 92 92 NNW 13 20 29.83 1010 5 8.04672 0.05 1.27
2:10 pm 14:10 Cloudy with Rain 51 10.6 49 9.4 92 92 NNW 10 17 29.88 1012 2.5 4.02336 0.06 1.524
2:23 pm 14:23 Cloudy with Rain 50 10 49 9.4 96 96 NNW 12 19 29.88 1012 3 4.828032 0.1 2.54
2:53 pm 14:53 Cloudy with Light Rain 50 10 48 8.9 93 93 N 13 20 29.85 1011 5 8.04672 0.15 3.81
3:53 pm 15:53 Cloudy with Rain 50 10 48 8.9 93 93 N 13 20 29.85 1011 3 4.828032 0.08 2.032
4:53 pm 16:53 Cloudy with Light Rain 50 10 48 8.9 93 93 NNE 15 24 29.88 1012 5 8.04672 0.1 2.54
5:53 pm 17:53 Cloudy with Light Rain 49 9.4 47 8.3 93 93 N 13 20 29.94 1014 9 14.484096 0.08 2.032
6:53 pm 18:53 Cloudy with Light Rain 47 8.3 45 7.2 93 93 NNE 15 24 29.97 1015 9 14.484096 0.06 1.524
7:53 pm 19:53 Cloudy with Light Rain 47 8.3 44 6.7 90 90 NNE 20 31 30 1016 7 11.265408 0.06 1.524
8:53 pm 20:53 Cloudy with Light Rain 46 7.8 43 6.1 89 89 NNE 22 35 30.03 1017 10 16.09344 0.04 1.016
9:53 pm 21:53 Cloudy with Light Rain 45 7.2 42 5.6 90 90 N 17 28 30.06 1018 10 16.09344 0.03 0.762
10:53 pm 22:53 Cloudy with Light Rain 44 6.7 41 5 89 89 N 21 33 30.06 1018 10 16.09344 0.02 0.508
11:53 pm 23:53 Cloudy 44 6.7 40 4.4 85 85 N 17 28 30.06 1018 10 16.09344 0.001 0.001

Powered by AerisWeather